Location: Newark
(7.0858°N, 171.3717°E)
Time: 05:39:17
(UTC+00:00)

Courier 1B Rocket - Pass Details

Date: 03 December 2020
Orbit: 920 x 1202 km, 28.2° (Epoch: 20 January)

Event Time Altitude Azimuth Distance (km) Brightness Sun altitude
Rises 13:56:08 0° 252° (WSW) 3,813 - -63.2°
Reaches altitude 10° 13:58:50 10° 257° (WSW) 2,900 - -62.7°
Maximum altitude 14:05:50 55° 333° (NNW) 1,326 - -61.3°
Drops below altitude 10° 14:13:18 10° 50° (NE) 3,080 - -59.8°
Sets 14:16:16 0° 54° (NE) 4,065 - -59.1°
